Maria — SV7156 — position and weather

sailwx.info

Track history (hours):
 
Tides and Currents Weather Stations Pressure Air Temp Water Temp Dewpoint Dewpoint Depression Visibility Wind Speed Wind Dir Waves Ship Positions

Maria

Last reported at 2014-Sep-02 11:33 UTC. Time now 2014-Sep-02 19:13 UTC.
Position N 37°58' E 023°35'.

Length 74 m; draft 4.5 m.

Type: Ship. MMSI: 237493000.

Date/timePositionNaut miles runAvg speedWind from/ knotsBaromVisibWave heightAir tempDewpointWater temp
2014-Sep-02 11:33N 37°58' E 023°35'4 1.1
2014-Sep-02 07:31N 38°01' E 023°32'1 0.7
2014-Sep-02 06:32N 38°01' E 023°32'0 0.0
2014-Sep-02 05:33N 38°01' E 023°32'3 2.7
2014-Sep-02 04:32N 37°58' E 023°33'2 1.6
2014-Sep-02 03:33N 37°58' E 023°35'0 0.0
2014-Sep-01 17:32N 37°58' E 023°35'6 5.6
2014-Sep-01 16:32N 37°53' E 023°31'0 0.0
2014-Sep-01 13:16N 37°53' E 023°31'0 0.0
2014-Sep-01 12:33N 37°53' E 023°31'0 0.0
2014-Sep-01 11:33N 37°53' E 023°31'3 3.4
2014-Sep-01 10:33N 37°55' E 023°34'0 0.0
2014-Sep-01 09:33N 37°55' E 023°34'0 0.0
2014-Sep-01 08:33N 37°55' E 023°34'0 0.1
2014-Sep-01 07:33N 37°55' E 023°34'0 0.1
2014-Sep-01 06:33N 37°55' E 023°34'1 1.0
2014-Sep-01 05:33N 37°56' E 023°35'2 1.5
2014-Sep-01 04:33N 37°58' E 023°35'0 0.0
2014-Sep-01 03:33N 37°58' E 023°35'0 0.0
2014-Aug-30 11:07N 37°58' E 023°35'1 2.5
2014-Aug-30 10:33N 37°58' E 023°33'5 4.5
2014-Aug-30 09:32N 38°02' E 023°36'0 0.0
2014-Aug-30 08:33N 38°02' E 023°36'0 0.0
2014-Aug-30 07:33N 38°02' E 023°36'0 0.0
2014-Aug-30 06:34N 38°02' E 023°36'5 4.7
2014-Aug-30 05:34N 37°57' E 023°33'1 1.2
2014-Aug-30 04:33N 37°58' E 023°35'0 0.0
2014-Aug-30 03:33N 37°58' E 023°35'0 0.0
2014-Aug-30 02:33N 37°58' E 023°35'0 0.0
2014-Aug-30 01:33N 37°58' E 023°35'0 0.0
2014-Aug-30 00:34N 37°58' E 023°35'0 0.0
2014-Aug-29 23:34N 37°58' E 023°35'0 0.0
2014-Aug-29 22:33N 37°58' E 023°35'0 0.0
2014-Aug-29 21:33N 37°58' E 023°35'3 2.7
2014-Aug-29 20:34N 37°55' E 023°33'0 0.0
2014-Aug-29 19:33N 37°55' E 023°33'0 0.1
2014-Aug-29 18:34N 37°55' E 023°33'0 0.0
2014-Aug-29 17:33N 37°55' E 023°33'0 0.1
2014-Aug-29 16:34N 37°55' E 023°33'3 2.7
2014-Aug-29 15:34N 37°58' E 023°35'0 0.0
2014-Aug-29 14:33N 37°58' E 023°35'1 1.2
2014-Aug-29 13:33N 37°57' E 023°36'0 0.1
2014-Aug-29 12:33N 37°57' E 023°36'0 0.0
2014-Aug-29 11:33N 37°57' E 023°36'0 0.0
2014-Aug-29 10:33N 37°57' E 023°36'0 0.0
2014-Aug-29 09:33N 37°57' E 023°36'0 0.0
2014-Aug-29 08:33N 37°57' E 023°36'1 1.2
2014-Aug-29 07:33N 37°57' E 023°35'5 5.0
2014-Aug-29 06:33N 37°52' E 023°32'0 0.0
2014-Aug-29 05:34N 37°52' E 023°32'0 0.0
2014-Aug-29 04:34N 37°52' E 023°32'1 1.3
2014-Aug-29 03:33N 37°54' E 023°32'4 4.4
2014-Aug-29 02:33N 37°58' E 023°35'0 0.0
2014-Aug-28 17:33N 37°58' E 023°35'0 0.0
2014-Aug-28 16:33N 37°58' E 023°35'0 0.0
2014-Aug-28 15:33N 37°58' E 023°35'1 1.2
2014-Aug-28 14:33N 37°58' E 023°33'4 3.7
2014-Aug-28 13:23N 38°02' E 023°33'3 0.5
2014-Aug-28 08:31N 37°59' E 023°33'2 0.2
2014-Aug-27 19:05N 37°58' E 023°35'1 2.7
2014-Aug-27 18:34N 37°58' E 023°33'4 3.8
2014-Aug-27 17:22N 38°02' E 023°36'0 0.0
2014-Aug-27 16:32N 38°02' E 023°36'0 0.0
2014-Aug-27 14:30N 38°02' E 023°36'4 4.2
2014-Aug-27 13:34N 37°58' E 023°33'2 2.1
2014-Aug-27 12:34N 37°57' E 023°35'0 0.0
2014-Aug-27 11:34N 37°57' E 023°35'0 0.0
2014-Aug-27 10:34N 37°57' E 023°35'0 0.0
2014-Aug-27 09:34N 37°57' E 023°35'0 0.0
2014-Aug-27 08:33N 37°57' E 023°35'0 0.5
2014-Aug-27 07:34N 37°57' E 023°36'0 0.0
2014-Aug-27 06:34N 37°57' E 023°36'0 0.0
2014-Aug-27 05:34N 37°57' E 023°36'0 0.0
2014-Aug-27 04:34N 37°57' E 023°36'1 0.7
2014-Aug-27 03:34N 37°57' E 023°35'1 0.0
2014-Aug-26 09:30N 37°58' E 023°35'0 0.1
2014-Aug-26 08:34N 37°58' E 023°35'0 0.0
2014-Aug-26 07:34N 37°58' E 023°35'0 0.0
2014-Aug-26 06:33N 37°58' E 023°35'0 0.0
2014-Aug-26 05:33N 37°58' E 023°35'0 0.2
2014-Aug-26 04:34N 37°57' E 023°35'4 4.2
2014-Aug-26 03:33N 38°02' E 023°36'0 0.1
2014-Aug-26 02:26N 38°02' E 023°36'0 0.0
2014-Aug-26 01:28N 38°02' E 023°36'0 0.0
2014-Aug-26 00:26N 38°02' E 023°36'0 0.0
2014-Aug-25 23:33N 38°02' E 023°36'0 0.3
2014-Aug-25 22:21N 38°02' E 023°35'1 0.7
2014-Aug-25 21:33N 38°01' E 023°35'0 0.1
2014-Aug-25 20:33N 38°01' E 023°35'0 0.0
2014-Aug-25 19:31N 38°01' E 023°35'0 0.0
2014-Aug-25 18:31N 38°01' E 023°35'0 0.0
2014-Aug-25 17:32N 38°01' E 023°35'0 0.0
2014-Aug-25 16:28N 38°01' E 023°35'0 0.0
2014-Aug-25 15:31N 38°01' E 023°35'2 1.8
2014-Aug-25 14:32N 38°00' E 023°33'3 3.2
2014-Aug-25 13:33N 37°57' E 023°35'0 0.4
2014-Aug-25 12:33N 37°57' E 023°35'0 0.0
2014-Aug-25 11:33N 37°57' E 023°35'0 0.0
2014-Aug-25 10:34N 37°57' E 023°35'1 0.9
2014-Aug-25 09:34N 37°58' E 023°36'0 0.0
2014-Aug-25 08:34N 37°58' E 023°36'0 0.0
2014-Aug-25 07:31N 37°58' E 023°36'1 0.7
2014-Aug-25 06:31N 37°57' E 023°36'1 1.1
2014-Aug-25 05:30N 37°58' E 023°35'0 0.0
2014-Aug-24 15:13N 37°58' E 023°35'1 0.9
2014-Aug-24 14:33N 37°57' E 023°35'0 0.0
2014-Aug-24 13:33N 37°57' E 023°35'0 0.3
2014-Aug-24 12:33N 37°57' E 023°35'2 2.4
2014-Aug-24 11:33N 37°56' E 023°38'0 0.0
2014-Aug-24 10:33N 37°56' E 023°38'0 0.0
2014-Aug-24 09:33N 37°56' E 023°38'0 0.0
2014-Aug-24 08:33N 37°56' E 023°38'0 0.0
2014-Aug-24 07:33N 37°56' E 023°38'0 0.0
2014-Aug-24 06:33N 37°56' E 023°38'0 0.1
2014-Aug-24 05:33N 37°56' E 023°38'3 3.0
2014-Aug-24 04:33N 37°57' E 023°35'  
Track history (hours):
 
Tides and Currents Weather Stations Pressure Air Temp Water Temp Dewpoint Dewpoint Depression Visibility Wind Speed Wind Dir Waves Ship Positions

Maria

Last reported at 2014-Sep-02 11:33 UTC. Time now 2014-Sep-02 19:13 UTC.
Position N 37°58' E 023°35'.

Length 74 m; draft 4.5 m.

Type: Ship. MMSI: 237493000.

Date/timePositionNaut miles runAvg speedWind from/ knotsBaromVisibWave heightAir tempDewpointWater temp
2014-Sep-02 11:33N 37°58' E 023°35'4 1.1
2014-Sep-02 07:31N 38°01' E 023°32'1 0.7
2014-Sep-02 06:32N 38°01' E 023°32'0 0.0
2014-Sep-02 05:33N 38°01' E 023°32'3 2.7
2014-Sep-02 04:32N 37°58' E 023°33'2 1.6
2014-Sep-02 03:33N 37°58' E 023°35'0 0.0
2014-Sep-01 17:32N 37°58' E 023°35'6 5.6
2014-Sep-01 16:32N 37°53' E 023°31'0 0.0
2014-Sep-01 13:16N 37°53' E 023°31'0 0.0
2014-Sep-01 12:33N 37°53' E 023°31'0 0.0
2014-Sep-01 11:33N 37°53' E 023°31'3 3.4
2014-Sep-01 10:33N 37°55' E 023°34'0 0.0
2014-Sep-01 09:33N 37°55' E 023°34'0 0.0
2014-Sep-01 08:33N 37°55' E 023°34'0 0.1
2014-Sep-01 07:33N 37°55' E 023°34'0 0.1
2014-Sep-01 06:33N 37°55' E 023°34'1 1.0
2014-Sep-01 05:33N 37°56' E 023°35'2 1.5
2014-Sep-01 04:33N 37°58' E 023°35'0 0.0
2014-Sep-01 03:33N 37°58' E 023°35'0 0.0
2014-Aug-30 11:07N 37°58' E 023°35'1 2.5
2014-Aug-30 10:33N 37°58' E 023°33'5 4.5
2014-Aug-30 09:32N 38°02' E 023°36'0 0.0
2014-Aug-30 08:33N 38°02' E 023°36'0 0.0
2014-Aug-30 07:33N 38°02' E 023°36'0 0.0
2014-Aug-30 06:34N 38°02' E 023°36'5 4.7
2014-Aug-30 05:34N 37°57' E 023°33'1 1.2
2014-Aug-30 04:33N 37°58' E 023°35'0 0.0
2014-Aug-30 03:33N 37°58' E 023°35'0 0.0
2014-Aug-30 02:33N 37°58' E 023°35'0 0.0
2014-Aug-30 01:33N 37°58' E 023°35'0 0.0
2014-Aug-30 00:34N 37°58' E 023°35'0 0.0
2014-Aug-29 23:34N 37°58' E 023°35'0 0.0
2014-Aug-29 22:33N 37°58' E 023°35'0 0.0
2014-Aug-29 21:33N 37°58' E 023°35'3 2.7
2014-Aug-29 20:34N 37°55' E 023°33'0 0.0
2014-Aug-29 19:33N 37°55' E 023°33'0 0.1
2014-Aug-29 18:34N 37°55' E 023°33'0 0.0
2014-Aug-29 17:33N 37°55' E 023°33'0 0.1
2014-Aug-29 16:34N 37°55' E 023°33'3 2.7
2014-Aug-29 15:34N 37°58' E 023°35'0 0.0
2014-Aug-29 14:33N 37°58' E 023°35'1 1.2
2014-Aug-29 13:33N 37°57' E 023°36'0 0.1
2014-Aug-29 12:33N 37°57' E 023°36'0 0.0
2014-Aug-29 11:33N 37°57' E 023°36'0 0.0
2014-Aug-29 10:33N 37°57' E 023°36'0 0.0
2014-Aug-29 09:33N 37°57' E 023°36'0 0.0
2014-Aug-29 08:33N 37°57' E 023°36'1 1.2
2014-Aug-29 07:33N 37°57' E 023°35'5 5.0
2014-Aug-29 06:33N 37°52' E 023°32'0 0.0
2014-Aug-29 05:34N 37°52' E 023°32'0 0.0
2014-Aug-29 04:34N 37°52' E 023°32'1 1.3
2014-Aug-29 03:33N 37°54' E 023°32'4 4.4
2014-Aug-29 02:33N 37°58' E 023°35'0 0.0
2014-Aug-28 17:33N 37°58' E 023°35'0 0.0
2014-Aug-28 16:33N 37°58' E 023°35'0 0.0
2014-Aug-28 15:33N 37°58' E 023°35'1 1.2
2014-Aug-28 14:33N 37°58' E 023°33'4 3.7
2014-Aug-28 13:23N 38°02' E 023°33'3 0.5
2014-Aug-28 08:31N 37°59' E 023°33'2 0.2
2014-Aug-27 19:05N 37°58' E 023°35'1 2.7
2014-Aug-27 18:34N 37°58' E 023°33'4 3.8
2014-Aug-27 17:22N 38°02' E 023°36'0 0.0
2014-Aug-27 16:32N 38°02' E 023°36'0 0.0
2014-Aug-27 14:30N 38°02' E 023°36'4 4.2
2014-Aug-27 13:34N 37°58' E 023°33'2 2.1
2014-Aug-27 12:34N 37°57' E 023°35'0 0.0
2014-Aug-27 11:34N 37°57' E 023°35'0 0.0
2014-Aug-27 10:34N 37°57' E 023°35'0 0.0
2014-Aug-27 09:34N 37°57' E 023°35'0 0.0
2014-Aug-27 08:33N 37°57' E 023°35'0 0.5
2014-Aug-27 07:34N 37°57' E 023°36'0 0.0
2014-Aug-27 06:34N 37°57' E 023°36'0 0.0
2014-Aug-27 05:34N 37°57' E 023°36'0 0.0
2014-Aug-27 04:34N 37°57' E 023°36'1 0.7
2014-Aug-27 03:34N 37°57' E 023°35'1 0.0
2014-Aug-26 09:30N 37°58' E 023°35'0 0.1
2014-Aug-26 08:34N 37°58' E 023°35'0 0.0
2014-Aug-26 07:34N 37°58' E 023°35'0 0.0
2014-Aug-26 06:33N 37°58' E 023°35'0 0.0
2014-Aug-26 05:33N 37°58' E 023°35'0 0.2
2014-Aug-26 04:34N 37°57' E 023°35'4 4.2
2014-Aug-26 03:33N 38°02' E 023°36'0 0.1
2014-Aug-26 02:26N 38°02' E 023°36'0 0.0
2014-Aug-26 01:28N 38°02' E 023°36'0 0.0
2014-Aug-26 00:26N 38°02' E 023°36'0 0.0
2014-Aug-25 23:33N 38°02' E 023°36'0 0.3
2014-Aug-25 22:21N 38°02' E 023°35'1 0.7
2014-Aug-25 21:33N 38°01' E 023°35'0 0.1
2014-Aug-25 20:33N 38°01' E 023°35'0 0.0
2014-Aug-25 19:31N 38°01' E 023°35'0 0.0
2014-Aug-25 18:31N 38°01' E 023°35'0 0.0
2014-Aug-25 17:32N 38°01' E 023°35'0 0.0
2014-Aug-25 16:28N 38°01' E 023°35'0 0.0
2014-Aug-25 15:31N 38°01' E 023°35'2 1.8
2014-Aug-25 14:32N 38°00' E 023°33'3 3.2
2014-Aug-25 13:33N 37°57' E 023°35'0 0.4
2014-Aug-25 12:33N 37°57' E 023°35'0 0.0
2014-Aug-25 11:33N 37°57' E 023°35'0 0.0
2014-Aug-25 10:34N 37°57' E 023°35'1 0.9
2014-Aug-25 09:34N 37°58' E 023°36'0 0.0
2014-Aug-25 08:34N 37°58' E 023°36'0 0.0
2014-Aug-25 07:31N 37°58' E 023°36'1 0.7
2014-Aug-25 06:31N 37°57' E 023°36'1 1.1
2014-Aug-25 05:30N 37°58' E 023°35'0 0.0
2014-Aug-24 15:13N 37°58' E 023°35'1 0.9
2014-Aug-24 14:33N 37°57' E 023°35'0 0.0
2014-Aug-24 13:33N 37°57' E 023°35'0 0.3
2014-Aug-24 12:33N 37°57' E 023°35'2 2.4
2014-Aug-24 11:33N 37°56' E 023°38'0 0.0
2014-Aug-24 10:33N 37°56' E 023°38'0 0.0
2014-Aug-24 09:33N 37°56' E 023°38'0 0.0
2014-Aug-24 08:33N 37°56' E 023°38'0 0.0
2014-Aug-24 07:33N 37°56' E 023°38'0 0.0
2014-Aug-24 06:33N 37°56' E 023°38'0 0.1
2014-Aug-24 05:33N 37°56' E 023°38'3 3.0
2014-Aug-24 04:33N 37°57' E 023°35'  

Dump ship's entire track history